Location: Elm Mott Branch
(32.1549°N, 97.5139°W)
Time: 10:49:45
(UTC+00:00)

Helios 1A Rocket - Pass Details

Date: 18 November 2025
Orbit: 440 x 452 km, 98.3° (Epoch: 07 December)

Event Time Altitude Azimuth Distance (km) Brightness Sun altitude
Rises 12:04:09 0° 170° (S) 2,425 6.5 -12.4°
Reaches altitude 10° 12:06:11 10° 172° (S) 1,556 5.4 -12.0°
Maximum altitude 12:09:30 73° 257° (WSW) 465 2.3 -11.3°
Drops below altitude 10° 12:12:49 10° 343° (NNW) 1,560 4.8 -10.7°
Sets 12:14:51 0° 346° (NNW) 2,432 5.8 -10.2°
